Preview of NWS' New Version of Forecast
This preview is not operational and should not be used for support decisions.
Latest weather observations around

Windsor Locks, Bradley International Airport (KBDL)

Using International System of Units (Switch to English Units)
Date/ Time (EDT) Wind (kph) Vis. (km) Weather Sky Cond. Temp (°C) Rel. Humidity Wind Chill (°C) Heat Index (°C) Pressure Precip. (cm)
Air Dwpt 6 hour Altimeter (hPa) Sea level (hPa) 1 hr 3 hr 6 hr
Max Min
Sep 16 23:51 NNW 5 16.09 Clear CLR 13 9     80%     1019 1018.8      
Sep 16 22:51 Calm 16.09 Clear CLR 12 9     83%     1018.3 1018.4      
Sep 16 21:51 NNW 8 16.09 Clear CLR 13 9     77%     1018.3 1018      
Sep 16 20:51 ENE 9 16.09 Clear CLR 16 8     60%     1017.6 1017.7      
Sep 16 19:51 N 5 16.09 Mostly Clear FEW065 17 8     56%     1017.3 1017.1      
Sep 16 18:51 NNW 11 16.09 Mostly Clear FEW075 FEW110 19 9     52%     1016.6 1016.5      
Sep 16 17:51 N 11 16.09 Mostly Clear FEW075 23 8     38%   22 1016.3 1016.1      
Sep 16 16:51 NNW 13 16.09 Mostly Clear FEW040 FEW130 24 8     37%   23 1015.9 1015.7      
Sep 16 15:51 5 16.09 Mostly Clear FEW040 FEW130 24 9     39%   24 1015.9 1015.7      
Sep 16 14:51 S 13 16.09 Mostly Cloudy FEW040 BKN130 23 10     43%   23 1016.3 1016      
Sep 16 13:51 5 16.09 Mostly Cloudy FEW040 BKN140 23 10     43%   23 1016.6 1016.6      
Sep 16 12:51 Calm 16.09 Mostly Cloudy FEW035 FEW120 BKN140 21 10     49%     1017.3 1017.1      
Sep 16 11:51 WSW 8 16.09 Mostly Cloudy FEW030 FEW070 BKN130 21 11     53%     1018 1017.7      
Sep 16 10:51 N 9 16.09 Mostly Cloudy FEW030 BKN070 BKN250 21 12     57%     1018.3 1018.2      
Sep 16 09:51 N 13 16.09 Mostly Cloudy FEW025 FEW070 BKN120 BKN250 19 12     65%     1018.6 1018.5      
Sep 16 08:51 N 17 16.09 Mostly Cloudy FEW035 BKN075 BKN250 19 14     71%     1018.6 1018.5      
Sep 16 07:51 NNW 8 16.09 Mostly Cloudy FEW034 BKN070 BKN250 17 14     81%     1018.6 1018.6      
Sep 16 06:51 WNW 9 16.09 Mostly Cloudy FEW025 FEW050 BKN070 BKN250 17 14     81%     1018.3 1018.2      
Sep 16 05:51 WNW 5 16.09 Mostly Cloudy SCT049 BKN065 BKN120 16 14     87%     1017.6 1017.5      
Sep 16 04:51 W 5 16.09 Cloudy OVC047 16 14     90%     1017.6 1017.6      
Sep 16 03:51 W 5 16.09 Mostly Cloudy SCT050 BKN120 BKN250 16 14     87%     1017.6 1017.5      
Sep 16 02:51 WNW 5 16.09 Mostly Cloudy BKN048 BKN250 16 14     90%     1017.6 1017.4      
Sep 16 01:51 W 8 16.09 Mostly Cloudy BKN050 BKN250 16 14     90%     1018 1017.6      
Sep 16 00:51 NW 8 16.09 Mostly Cloudy FEW050 BKN250 16 14     87%     1017.6 1017.6      
Sep 15 23:51 NW 11 16.09 Mostly Cloudy FEW065 BKN250 16 14     90%     1017.3 1017.3      
Sep 15 22:51 WNW 9 16.09 Mostly Cloudy BKN065 17 15     87%     1017.6 1017.5      
Sep 15 21:51 W 8 16.09 Mostly Clear FEW110 FEW200 17 15     87%     1017.6 1017.4      
Sep 15 20:51 WSW 8 16.09 Mostly Clear FEW150 FEW200 19 14     73%     1017.6 1017.6      
Sep 15 19:51 WSW 5 16.09 Mostly Cloudy FEW110 BKN150 BKN200 21 14     66%     1017.6 1017.7      
Sep 15 18:51 Calm 16.09 Mostly Cloudy FEW110 SCT140 BKN200 23 13     55%   23 1017.6 1017.7      
Sep 15 17:51 NW 8 16.09 Mostly Cloudy FEW040 BKN140 BKN200 24 12     48%   24 1018.3 1018.2      
Sep 15 16:51 NW 15 16.09 Mostly Cloudy FEW040 SCT140 BKN210 25 12     43%   25 1018 1017.9      
Sep 15 15:51 WNW 17 16.09 Mostly Clear FEW040 FEW140 FEW250 27 11     36%   26 1018 1017.9      
Sep 15 14:51 W 18 16.09 Mostly Clear FEW040 FEW250 26 10     36%   26 1018.3 1018.1      
Sep 15 13:51 WSW 15 16.09 Mostly Clear FEW040 FEW250 26 12     43%   25 1019 1018.8      
Sep 15 12:51 W 8 16.09 Mostly Clear FEW040 FEW250 24 12     45%   24 1019.7 1019.4      
Sep 15 11:51 W 9 16.09 Mostly Clear FEW030 FEW250 23 13     53%   23 1020.3 1020.3      
Sep 15 10:51 5 16.09 Mostly Clear FEW020 FEW250 23 13     55%   23 1021 1020.8      
Sep 15 09:51 NW 9 16.09 Mostly Clear FEW010 FEW250 21 15     68%     1021.3 1021.1      
Sep 15 08:51 NW 9 16.09 Mostly Clear FEW005 FEW250 19 16     81%     1021.3 1021.2      
Sep 15 07:51 Calm 16.09 Mostly Clear FEW005 FEW250 17 16     96%     1021.7 1021.5      
Sep 15 06:51 Calm 16.09 Fog FEW004 FEW040 SCT250 15 14     96%     1021.3 1021.4      
Sep 15 05:51 Calm 4.83 Fog/Mist FEW002 BKN250 15 14     93%     1021 1021.1      
Sep 15 04:51 Calm 4.83 Fog/Mist SCT002 SCT032 BKN250 16 15     96%     1020.7 1020.6      
Sep 15 03:51 N 11 6.44 Fog/Mist FEW002 FEW030 BKN250 16 15     96%     1020.7 1020.7      
Sep 15 03:13 SW 5 4.83 Fog/Mist SCT002 SCT030 17 16     96%     1020.3        
Sep 15 02:51 SSW 8 1.61 Fog/Mist BKN002 BKN032 17 16     96%     1020.3 1020.3      
Sep 15 02:45 SSW 5 1.61 Fog/Mist BKN002 BKN032 17 16     94%     1020.3        
Sep 15 01:51 SW 11 16.09 Partly Cloudy SCT002 SCT032 19 18     93%     1020.7 1020.5     0
Sep 15 00:51 S 8 12.87 Mostly Cloudy SCT003 BKN032 BKN250 19 18     96%     1021 1020.8      
Sep 15 00:30 SW 5 11.27 Mostly Cloudy SCT003 BKN031 BKN049 19 18     96%     1021        
Sep 14 23:51 S 15 14.48 Mostly Cloudy SCT004 BKN021 BKN049 19 18     93%     1021 1021 0    
Sep 14 23:23 S 9 14.48 Cloudy SCT005 SCT012 OVC020 19 19     97%     1021   0    
Sep 14 22:51 S 8 8.05 Light Drizzle and Fog/Mist FEW002 BKN005 OVC015 19 19     97%     1021.3 1021.2 0 0  
Sep 14 22:12 S 9 4.83 Light Rain and Fog/Mist BKN006 OVC014 19 19     97%     1021.3   0    
Sep 14 22:01 S 11 12.87 Cloudy SCT007 OVC014 19 18     93%     1021.3        
Sep 14 21:51 S 9 16.09 Cloudy BKN007 BKN012 OVC028 19 18     93%     1021.7 1021.5 0    
Sep 14 21:17 S 8 6.44 Light Rain and Fog/Mist FEW005 BKN009 OVC028 19 18     93%     1021.7   0    
Sep 14 21:07 S 9 14.48 Light Rain BKN011 BKN019 OVC028 19 18     93%     1021.7   0    
Sep 14 20:59 S 9 12.87 Light Rain SCT014 BKN019 OVC034 19 18     93%     1021.7   0    
Sep 14 20:51 S 8 8.05 Light Rain and Fog/Mist BKN014 OVC027 19 18     93%     1021.7 1021.6 0    
Sep 14 20:31 S 5 6.44 Light Rain and Fog/Mist OVC014 19 18     93%     1021.7   0    
Sep 14 19:51 SSE 9 16.09 Cloudy BKN020 OVC031 19 18     90%     1021.3 1021.3     0
Sep 14 19:01 S 8 16.09 Cloudy SCT020 BKN029 OVC035 19 18     90%     1021.7        
Sep 14 18:51 S 9 16.09 Cloudy SCT028 OVC034 19 18     90%     1021.7 1021.6 0    
Sep 14 18:18 S 9 14.48 Light Rain FEW022 OVC034 19 18     90%     1021.7   0    
Sep 14 18:01 SSW 13 16.09 Thunderstorms FEW025 OVC034 20 17     84%     1021.7        
Sep 14 17:51 SSW 11 16.09 Cloudy FEW025 OVC034 20 17     84%     1021.7 1021.7 0    
Sep 14 17:10 SSW 17 16.09 Cloudy SCT029 OVC036 21 16     73%     1021.7        
Sep 14 16:51 SSW 15 16.09 Cloudy BKN029 OVC055 21 17     76%     1022 1021.9      
Sep 14 15:51 S 9 16.09 Cloudy SCT027 BKN039 OVC050 21 17     76%     1022.7 1022.5      
Sep 14 14:51 S 13 16.09 Cloudy FEW026 OVC040 21 17     78%     1023.4 1023.2      
Sep 14 13:51 S 11 16.09 Cloudy FEW022 OVC043 19 17     84%     1024.1 1023.9 0   0
Sep 14 12:51 SSW 5 16.09 Cloudy SCT034 BKN040 OVC050 18 16     87%     1025.1 1024.9 0    
Sep 14 12:46 SSW 8 11.27 Light Rain SCT031 BKN040 OVC055 18 16     88%     1025.1   0    
Sep 14 12:38 SW 5 4.02 Rain and Fog/Mist FEW031 BKN040 OVC050 18 16     87%     1025.1   0    
Sep 14 12:31 SW 5 2.82 Heavy Rain BKN038 OVC050 19 15     78%     1025.1   0    
Sep 14 11:51 SSW 8 16.09 Cloudy FEW025 SCT047 OVC055 19 14     75%     1025.4 1025.4      
Sep 14 10:51 S 8 16.09 Cloudy OVC055 17 13     78%     1026.1 1026.2      
Sep 14 09:51 SSW 8 16.09 Cloudy OVC055 16 12     80%     1026.8 1026.8      
Sep 14 08:51 S 11 16.09 Cloudy FEW028 OVC060 14 11     81%     1027.4 1027.3      
Sep 14 07:51 Calm 16.09 Mostly Cloudy FEW025 BKN065 13 10     80%     1027.8 1027.6      
Sep 14 07:19 SSE 5 16.09 Mostly Cloudy SCT024 BKN070 13 10     83%     1027.8        
Sep 14 06:51 Calm 16.09 Mostly Cloudy FEW007 BKN022 BKN075 BKN250 12 9     86%     1028.1 1028.2      
Sep 14 06:17 Calm 16.09 Mostly Cloudy FEW006 BKN025 BKN075 BKN250 11 9     86%     1028.5        
Sep 14 05:51 NW 8 16.09 Mostly Cloudy BKN075 BKN250 11 9     86%     1028.5 1028.4      
Sep 14 04:51 Calm 16.09 Partly Cloudy FEW075 SCT080 SCT250 10 8     89%     1028.1 1027.9      
Sep 14 03:51 SSW 5 16.09 Mostly Cloudy FEW037 BKN065 BKN080 11 8     83%     1028.8 1028.6      
Sep 14 02:51 SSE 8 16.09 Mostly Cloudy FEW037 BKN075 11 8     83%     1029.1 1029.1      
Sep 14 01:51 ESE 5 16.09 Partly Cloudy SCT035 SCT250 11 8     80%     1030.1 1030.2      
Sep 14 00:51 SSE 11 16.09 Partly Cloudy SCT033 SCT250 11 8     80%     1031.2 1030.9      
May 15 09:43 S 17 3.22 Haze OVC005 18 16     84%     1011.2        
May 14 11:51 11 16.09 Mostly Cloudy BKN022 17 11     70%     1015.9 1015.8      
May 13 20:00 SSW 13 16.09 Cloudy BKN014 OVC100 12 9     83%     1019.3        
May 13 17:51 SW 15 16.09 Mostly Cloudy FEW025 SCT110 BKN130 14 9     72%     1019.3 1019.2      
Jun 10 10:51 SSW 15 16.09 Mostly Cloudy FEW070 SCT095 BKN250 27 12     39%   26 1014.9 1014.9      
Jun 07 15:51 9 16.09 Mostly Clear FEW060 FEW080 23 7     36%   23 1014.2 1014      
Jun 07 09:51 N 17 16.09 Mostly Cloudy FEW020 BKN055 14 9     72%     1015.6 1015.5